Погода в Жаслыке

Погода в Жаслыке : погода сейчас, прогноз погоды и архив. Всё, что Вы хотите узнать о погоде в Жаслыке!

Хотите узнать прогноз погоды в Жаслыке? Тогда Вам сюда: Погода в Жаслыке

Поиск расширенной информации на нашем сайте:

Другие новости

Новости СМИ2

Главная страница сайта

Новости сайта

03.07.2017

Напоминаем, что на нашем специализированном сайте Метеоцентр.Азия вы можете получить высокодетализированные автоматические прогнозы погоды по пунктам России, СНГ и мира в авиационном формате (включающие направление и скорость ветра, видимость, явления погоды, количество и форму облачности, нижнюю и верхнюю границу облачности).


Погода в Жаслыке - сегодня

Время (UTC), дата Ветер
(°,м/с) 
Видим.   Явления Облачность Т
(°С)
Тd
(°С)
f(%) Тe
(°С)
Pmin
(гПа)
dP
(гПа)
Po
(мм)
O2
(г/м3)
Тmin Tmax R s Состояние
почвы
21 12.01.18 050 (СВ) 20000 м    10/10 600 м 
[Sc]
-6.4 -7.6 91 -8  1024.1  -0.2  756  313           
00 13.01.18 тихо ()   20000 м    10/10 600 м 
[Sc]
-7.3 -8.2 93 -7  1024.5  0.2  756  314           
03 13.01.18 060 (СВ) 20000 м    10/4 600 м верхняя 
[Sc|Ci fib]
-8.2 -9.2 92 -13  1024.1  -0.3  756  315        неравномерный
мокрый или
старый снег
100% 
06 13.01.18 070 (В) 20000 м    3/0 средняя, верхняя 
[Ac trans|Ci sp]
-6.5 -9.3 80 -12  1027.3  3.3  758  314  -8.7         
09 13.01.18 090 (В) 20000 м    10/10 600 м 
[Sc]
-3.6 -7.2 76 -7  1028.1  0.9  759  311           
12 13.01.18 050 (СВ) 10  20000 м    10/10 600 м 
[Sc]
-5.6 -7.4 87 -12  1029.2  0.9  759  313           
18 13.01.18 060 (СВ) 4000 м  слаб. снег  10/10 600 м 
[Ns]
-7.7 -8.7 93 -14  1031.4  761  316    -3.3  0.4     
21 13.01.18 050 (СВ) 4000 м  слаб. снег  10/10 600 м 
[Ns]
-8.4 -9.4 92 -13  1031.8  0.4  761  317           
00 14.01.18 060 (СВ) 10  20000 м  в посл. час снег  10/10 600 м 
[Ns]
-8.6 -9.7 92 -16  1031.8  761  318           
03 14.01.18 060 (СВ) 13  20000 м  в посл. час снег  10/10 600 м 
[Ns]
-9.8 -11.5 87 -18  1032.9  762  320      неравномерный
сухой снег
100% 
09 14.01.18 060 (СВ) 13  20000 м    3/0 средняя 
[Ac trans]
-8.4 -11.2 80 -16  1033  -0.9  762  318           
12 14.01.18 060 (СВ) 13  20000 м    4/0 верхняя 
[Ci sp]
-10.5 -13.2 81 -19  1033.4  0.3  762  321           
15 14.01.18 060 (СВ) 20000 м    4/0 верхняя 
[Ci sp]
-14.9 -16.9 85 -20  1034.9  1.2  763  327    -8.1       
18 14.01.18 060 (СВ) 20000 м    ясно 
-15.7 -17.6 85 -21  1035.3  0.2  763  328    -8.1       
21 14.01.18 060 (СВ) 20000 м    ясно 
-17.8 -19.7 85 -25  1035.7  0.3  764  331           
00 15.01.18 060 (СВ) 20000 м    ясно 
-17.6 -19.5 85 -22  1035.5  -0.2  763  330           
06 15.01.18 030 (СВ) 20000 м    1/0 верхняя 
[Ci sp]
-17.6 -20.2 80 -22  1037.5  1.4  765  331  -19.8         
09 15.01.18 050 (СВ) 20000 м    1/0 верхняя 
[Ci sp]
-12.2 -16.5 70 -17  1036.3  -0.8  764  324           
12 15.01.18 040 (СВ) 20000 м    1/0 верхняя 
[Ci sp]
-13.4 -16.1 80 -18  1036.6  0.2  764  325           
15 15.01.18 020 (С) 20000 м    ясно 
-19.3 -21.2 85 -24  1037.1  0.1  765  333    -11.9       
18 15.01.18 020 (С) 20000 м    ясно 
-21.2 -23 85 -24  1037.7  0.4  765  336    -11.9       
21 15.01.18 020 (С) 20000 м    ясно 
-22.2 -24 85 -25  1037.6  -0.1  765  337           
00 16.01.18 360 (С) 20000 м    ясно 
-22.9 -25.4 80 -23  1037  -0.6  764  338           
06 16.01.18 350 (С) 20000 м    ясно 
-21.3 -24.6 75 -22  1036.3  -0.7  764  336  -25.5         
09 16.01.18 330 (СЗ) 20000 м    ясно 
-17.9 -21.2 75 -18  1036.3  0.3  764  331           
Время (UTC), дата Ветер
(°,м/с) 
Видим.   Явления Облачность Т
(°С)
Тd
(°С)
f(%) Тe
(°С)
Pmin
(гПа)
dP
(гПа)
Po
(мм)
O2
(г/м3)
Тmin Tmax R s Состояние
почвы

Для получения пояснительной информации подведите курсор к названию столбца.

ПОГОДА в Жаслыке - архив

Всё, что Вы хотите узнать о погоде в Жаслыке - удобно и подробно!

Выберите нужную дату (начиная с 1 января 2015* года) и нажмите кнопку "Найти".
Будут отображены архивные сводки погоды по пункту Жаслык, начиная с указанной даты.


Отображать данные в формате CSV (для использования в таблицах Excel)


Внимание! Наш архив погоды предназначен исключительно для личного некоммерческого использования в познавательных целях. Если Вам необходимы официальные справки о состоянии погоды (для производственных, юридических, коммерческих и т.п. целей), обращайтесь в органы Росгидромета.

*Примечание: данная дата относится к архиву по метеостанциям СССР (Россия, СНГ, Балтия).
Архив по метеостанциям Зарубежной Европы и Азии (кроме Китая) хранится 10 дней, по другим регионам земного шара (Китай, Африка, Америка, Австралия, Океания) - 1 день.

Жаслык - район местоположения метеостанции


Название, широта, долгота, высота метеостанции:
Жаслык 43.9°ш. 57.5°д. 128 м над ур. моря [Узбекистан]

Дополнительная информация

В oтличие oт бoльшинства пoгoдных сайтoв мы публикуем пoдрoбную метеoинфoрмацию в детальнoм прoфессиoнальнoм фoрмате.

Характеристики температуры и влажнoсти вoздуха измеряются на высoте 2 м в тени вдали oт зданий и деревьев.
Скoрoсть ветра измеряется на высoте 10 м (на урoвне рoста челoвека скoрoсть ветра ниже в 1.5-2 раза). Если метеoстанция нахoдится в гoрoде или в лесу, тo скoрoсть ветра занижена на 2-4 м/с пo сравнению с oткрытым местoм. Скoрoсть ветра над акватoриями крупных рек и oзёр, а также на вершинах хoлмoв на 2-5 м/с выше, чем в oбычных услoвиях.
Атмoсфернoе давление в разных тoчках местнoсти мoжет значительнo oтличаться oт давления на метеoстанции, в зависимoсти oт услoвий рельефа (при пoдъёме на 10 м давление пoнижается примернo на 1 мм рт.ст.).